Orbital Elements at Epoch 2459200.5 (2020-Dec-17.0) TDB
Reference: JPL 22 (heliocentric ecliptic J2000)
Element | Value | Uncertainty (1-sigma) | Units |
e | .212446574052416 | 4.4433e-08 | |
a | 2.376018732339474 | 9.5817e-09 | au |
q | 1.871241692769589 | 1.0922e-07 | au |
i | 1.623311005968048 | 4.9481e-06 | deg |
node | 316.7307070189451 | 0.00016882 | deg |
peri | 352.2090040088891 | 0.00016934 | deg |
M | 15.12646767960523 | 1.2023e-05 | deg |
tp | 2459144.290691793032 (2020-Oct-21.79069179) | 4.4619e-05 | TDB |
period | 1337.744632991321 3.66 | 8.092e-06 2.215e-08 | d yr |
n | .2691096574949484 | 1.6278e-09 | deg/d |
Q | 2.88079577190936 | 1.1617e-08 | au |
|
| | Orbit Determination Parameters
Additional Information
|